Weather in Ayan

Russia / Khabarovsk Krai     56°27′37″N   138°10′34″E
temp.,
°C
wind,
m/s
gust,
m/s
humid.,
%
clouds,
%
prec.,
mm/h
press.,
hPa
HPBL,
m
27 february, sat
sat2701:00−22nw33720 0.0 102822
04:00−22nw22690 0.0 102720
07:00−23nw11700 0.0 102620
10:00−21ene11770 0.0 102631
13:00−19sse11720 0.0 1025170
16:00−19n11830 0.0 102371
19:00−20ne2291100 0.0 102221
22:00−20ne3498100 0.0 102187
28 february, sun
sun2801:00−20nne4694100 0.0 1019399
04:00−19ne5796100 0.3 1017532
07:00−19nne6997100 1.4 1016672
10:00−18nne71096100 2.2 1015710
13:00−17nne6893100 0.5 1015707
16:00−16nne4691100 0.8 1015535
19:00−17nne2395100 0.1 101783
22:00−17wnw4778100 0.1 1019179
1 march, mon
mon101:00−19wnw71163100 0.0 1019348
04:00−21wnw91362100 0.0 1020415
07:00−23wnw91363100 0.0 1021381
10:00−22wnw91361100 0.0 1021591
13:00−21wnw91260100 0.0 1021709
16:00−21wnw91161100 0.0 1020755
19:00−22wnw81261100 0.0 1021559
22:00−22wnw71164100 0.0 1021446
2 march, tue
tue201:00−23wnw7116499 0.0 1020347
04:00−24wnw71065100 0.0 1020369
07:00−24wnw71066100 0.0 1021284
10:00−24wnw71063100 0.0 1021510
13:00−22wnw685793 0.0 10211006
16:00−21wnw576094 0.0 10221021
19:00−24wnw586886 0.0 1022109
22:00−26wnw577157 0.0 102395
3 march, wed
wed301:00−27wnw567310 0.0 102275
04:00−28wnw56739 0.0 102272
07:00−28wnw45750 0.0 102260
10:00−26wnw45730 0.0 1021141
13:00−21wnw35600 0.0 1019500
16:00−21sw34770 0.0 1017141
19:00−24w33740 0.0 101622
22:00−25wnw337428 0.0 101626